Theta_e
324 324 325 325 325 325 326 326 326 327 326 328 328 326 325 324 324 325 325 325 326 326 326 326 324 322 323 321 323 321 316 303 302 300 300 300 319 325 327 330 331 333 321 299 300 299 297 296 298 296 297 295 292 292 291 294 291 288 283 281 281 279 281 282 282 280 284 286 287 285 282 280 280 282 284 283 283 279 281 282 281 283 285 285 286 286 287 287
323 324 324 324 324 325 326 326 326 326 326 327 326 324 324 323 324 324 324 324 324 324 325 323 320 325 321 323 323 324 306 304 301 300 299 312 324 325 329 331 329 329 313 300 298 297 298 295 295 297 292 291 292 291 292 289 291 284 280 283 282 279 285 285 285 283 286 286 285 283 280 281 282 281 283 281 281 279 281 282 281 283 284 286 286 286 287 288
323 324 324 324 325 325 326 326 326 326 326 325 323 323 323 324 324 324 324 324 324 324 325 325 324 323 325 324 322 317 306 303 302 297 300 322 323 326 329 330 326 320 301 299 298 296 296 295 295 297 291 290 291 289 290 288 290 284 284 282 282 281 285 286 286 286 286 286 282 281 282 281 282 282 283 283 280 280 281 279 281 281 283 284 285 286 286 288
323 323 324 324 325 325 325 325 326 325 326 324 323 324 324 324 324 324 325 324 323 324 325 325 327 324 323 323 320 305 303 302 294 295 300 324 323 326 327 328 323 309 299 299 297 298 294 294 293 294 289 289 286 287 289 289 286 285 285 278 285 284 284 286 284 285 283 283 281 281 281 281 282 282 283 279 281 279 277 279 282 281 281 283 283 283 286 287
322 323 323 324 324 324 325 325 325 326 327 326 325 324 323 323 323 324 325 324 321 322 322 322 323 323 323 322 319 301 299 296 294 297 303 321 322 326 325 328 322 298 298 297 297 295 295 292 289 288 288 284 285 284 285 286 286 284 282 283 285 284 284 285 283 283 281 280 280 280 282 282 283 282 278 281 280 279 282 283 282 281 283 284 284 284 285 286
322 322 322 322 323 323 324 324 325 326 326 326 324 323 323 323 323 323 324 326 324 322 322 321 320 319 318 315 300 299 296 284 295 298 319 320 321 322 322 321 318 301 296 294 293 293 294 294 292 284 284 284 284 285 285 285 287 284 282 281 282 284 284 284 283 282 281 280 280 282 283 282 280 282 278 280 279 280 280 282 282 282 283 285 284 283 285 286
322 321 321 321 321 321 321 322 322 323 324 324 323 323 323 322 323 323 324 325 325 324 323 324 323 323 315 316 304 300 296 293 294 301 315 317 318 316 320 312 307 296 296 294 293 292 291 293 292 285 284 285 285 286 286 287 288 287 282 282 282 282 283 281 283 278 278 281 284 282 284 283 281 283 280 280 280 280 281 280 280 281 283 284 284 283 285 286
321 322 321 320 320 320 320 320 321 321 322 322 323 322 322 322 323 323 324 324 324 323 323 322 321 320 316 300 300 294 293 291 298 299 311 314 304 303 307 299 297 296 295 291 294 292 289 290 290 285 285 285 284 285 285 287 285 284 282 283 283 281 281 280 279 279 280 280 280 281 283 282 281 282 281 280 280 280 282 281 281 281 281 282 283 283 283 284
321 322 321 320 320 320 320 320 320 321 321 322 322 322 322 323 323 323 324 322 322 322 321 321 320 319 317 301 297 295 290 297 297 298 301 299 298 297 298 298 295 296 291 289 289 290 290 287 287 284 287 285 285 284 283 282 283 281 282 281 281 281 281 281 281 279 279 282 280 285 281 279 278 280 281 281 283 281 282 281 280 281 282 282 282 283 282 283
321 321 320 320 320 320 321 320 320 321 321 322 322 323 322 322 322 321 321 321 321 320 320 319 316 315 304 299 296 292 294 296 297 300 300 298 297 297 296 294 292 292 291 291 290 289 290 286 290 290 290 285 283 282 282 284 283 281 281 281 282 282 283 282 283 280 280 283 280 283 280 281 281 281 279 282 281 283 282 282 280 281 282 282 283 283 281 281
321 320 319 319 319 320 320 320 320 321 321 322 322 322 321 321 321 320 320 320 321 320 319 317 316 310 299 297 294 289 297 300 297 300 300 298 299 297 294 293 293 293 294 293 291 290 292 293 293 291 289 285 286 284 284 282 284 283 283 283 281 280 282 281 281 281 282 284 280 283 281 281 279 282 279 281 283 281 282 282 282 281 281 281 281 281 282 283
320 319 318 318 319 320 320 321 321 321 321 322 322 322 321 320 320 320 319 319 318 318 317 314 312 304 300 297 293 292 297 298 296 298 301 299 298 296 295 293 294 292 296 291 291 291 292 290 287 284 287 287 285 285 285 283 283 282 281 281 280 276 282 281 283 282 281 284 281 280 281 280 278 282 283 280 280 282 280 281 280 281 280 279 279 280 281 283
320 318 318 318 319 319 321 321 322 322 321 321 322 322 322 322 321 319 321 319 322 321 319 316 317 302 300 293 292 298 294 296 296 299 301 301 296 297 297 296 295 295 295 293 289 290 290 286 294 290 284 284 282 283 285 283 282 282 280 279 278 273 277 281 281 280 282 282 279 280 279 274 276 275 277 278 281 280 281 280 280 279 279 279 279 280 281 282
319 318 318 318 318 318 318 319 320 321 321 321 321 321 321 322 322 321 320 319 320 320 317 317 302 300 296 287 297 299 296 298 297 301 297 301 297 298 299 299 298 297 296 294 292 293 294 293 294 289 285 284 284 288 286 279 279 280 279 277 275 274 278 281 281 280 283 281 278 283 279 275 274 277 281 279 279 281 281 280 280 279 279 279 280 280 281 283
319 318 318 318 317 317 317 318 319 320 320 319 318 319 319 320 320 320 321 318 321 320 319 310 296 293 291 291 295 296 314 297 300 295 296 299 296 296 297 297 297 296 295 295 294 294 293 293 293 287 286 284 287 283 277 276 276 275 279 277 273 273 279 278 282 279 281 282 279 279 275 274 277 277 277 278 279 279 279 280 279 278 279 279 278 280 281 283
318 318 317 317 316 317 317 318 318 319 319 318 318 318 318 318 318 318 317 317 317 316 303 300 299 297 292 288 297 305 294 295 297 297 295 299 297 295 294 295 295 296 294 294 295 295 293 294 287 284 285 284 281 277 277 276 277 274 276 278 277 275 278 278 282 277 280 280 279 280 278 278 282 281 280 277 280 279 279 278 278 278 278 279 280 279 280 281
318 318 317 316 317 317 317 317 318 318 317 318 317 318 318 319 319 319 317 311 304 304 301 297 292 295 290 294 298 292 290 293 296 296 296 296 297 295 294 295 294 293 291 295 295 294 292 289 284 285 281 280 277 274 275 274 275 276 274 276 276 279 277 277 278 281 279 280 281 278 280 276 279 279 278 277 279 279 279 280 279 279 279 279 279 279 279 280
317 317 317 317 317 316 317 317 317 318 317 316 314 315 312 316 315 313 309 305 299 299 298 299 293 292 289 295 291 292 294 292 297 295 295 297 295 295 294 294 289 293 288 292 292 291 288 284 284 281 279 280 279 276 280 278 277 279 277 276 278 276 275 277 277 280 280 278 281 277 279 279 280 280 278 276 278 278 280 281 280 279 278 279 278 279 279 279
316 316 316 317 317 316 316 316 317 318 318 318 319 319 313 312 302 304 301 300 295 290 290 293 290 285 282 291 292 293 296 296 294 296 297 297 296 293 292 291 290 290 287 285 287 285 284 284 283 281 279 279 278 277 277 279 276 278 274 278 276 278 278 279 278 279 280 279 280 278 279 279 280 280 278 276 278 278 280 278 279 279 279 279 279 279 279 280
316 316 316 316 317 316 316 317 317 318 316 312 299 300 294 293 293 290 295 299 291 290 290 291 289 291 292 291 294 296 296 294 296 295 297 295 297 294 290 288 288 288 282 283 282 282 282 279 277 276 278 278 277 277 279 277 277 275 274 274 275 276 275 277 278 280 277 280 277 276 276 275 278 279 280 278 277 278 278 279 280 280 280 280 279 279 280 280
316 316 316 316 316 316 316 316 317 316 314 297 300 298 294 285 285 283 287 289 289 288 292 293 291 292 292 293 292 294 294 293 294 296 297 298 293 291 289 287 284 284 279 279 281 283 284 281 278 278 279 279 278 277 277 276 276 276 275 274 278 276 279 280 281 278 280 281 278 275 277 280 279 279 277 277 279 280 280 280 280 281 280 280 279 280 280 281
315 315 315 315 315 315 315 316 316 313 309 298 297 295 290 288 294 293 292 290 292 291 290 290 290 292 292 292 293 291 290 290 296 296 298 299 291 290 287 283 280 281 279 278 278 280 280 279 279 279 279 277 277 277 276 276 276 276 279 276 278 278 276 277 277 277 279 281 277 275 279 281 282 279 278 277 279 278 279 281 280 280 280 280 279 279 280 280
315 315 315 314 315 314 315 316 314 311 295 298 295 293 296 298 295 291 294 295 291 293 293 290 293 289 292 293 292 292 289 287 288 293 296 296 289 287 283 281 279 278 280 278 280 278 280 279 280 279 278 279 278 276 277 277 277 278 279 279 278 277 278 278 277 278 279 280 279 278 277 282 277 276 277 278 278 278 277 277 279 280 281 282 281 281 282 281
314 313 314 314 314 314 315 312 309 301 295 295 295 295 296 294 294 297 292 288 288 292 294 292 291 290 292 292 295 291 289 289 288 291 296 291 288 286 283 279 278 278 279 278 279 277 277 280 278 277 278 280 278 278 276 278 279 277 276 276 277 277 278 277 277 277 277 279 278 277 277 275 274 282 283 282 276 279 279 279 278 279 279 280 280 280 281 283
313 313 313 314 313 315 313 311 300 295 294 295 294 296 293 294 289 291 290 285 285 290 293 291 289 293 295 297 293 294 288 289 290 292 290 292 289 285 282 281 279 279 280 279 282 281 279 280 279 278 277 277 279 278 279 276 279 276 278 279 279 277 279 277 277 276 272 278 279 277 275 274 276 275 277 280 277 280 277 279 282 282 280 279 281 282 282 283
313 313 313 313 314 314 313 301 298 295 295 296 298 296 293 292 295 292 287 277 276 284 290 289 296 293 295 292 293 285 289 286 291 292 295 296 295 287 283 282 280 280 278 280 281 279 281 280 280 278 278 278 278 278 278 277 277 277 279 278 278 278 278 277 277 278 276 278 279 276 278 273 275 275 277 276 275 279 280 279 281 281 281 279 282 282 282 283
312 312 312 313 315 314 301 296 295 295 296 297 296 293 292 294 292 298 291 272 274 284 287 292 294 292 298 291 291 289 283 284 290 292 292 294 292 290 285 281 282 281 279 280 279 279 281 280 278 277 276 276 277 279 279 277 277 280 278 276 277 279 279 278 276 277 278 277 281 277 275 274 274 277 277 275 276 278 280 282 282 282 282 281 281 282 282 282
312 310 312 314 313 310 301 297 297 296 294 296 291 289 293 294 295 292 279 269 273 288 287 289 293 296 296 292 290 288 286 288 286 289 292 292 292 289 284 282 281 282 281 279 275 280 280 279 279 280 276 278 278 279 280 278 278 279 278 279 279 279 278 276 277 275 276 278 277 275 276 275 272 276 276 276 281 278 280 282 283 283 282 282 282 282 282 283
311 312 312 314 312 309 299 297 294 296 296 292 290 292 293 291 291 289 275 271 283 285 298 290 299 293 288 291 287 285 287 287 287 290 289 291 293 287 284 281 280 282 280 282 278 279 281 281 281 279 276 279 279 279 278 280 279 280 279 278 278 277 277 278 276 279 274 276 272 276 276 273 275 275 275 276 280 278 280 281 282 282 282 282 282 283 283 282
312 311 312 313 307 305 298 295 296 296 292 289 292 293 293 294 289 282 278 272 287 281 290 291 291 286 285 284 285 285 288 284 285 286 287 286 290 289 286 284 282 280 283 283 281 279 281 283 283 281 280 281 278 279 278 279 280 279 281 280 278 276 276 275 274 275 272 269 271 275 274 276 273 277 278 282 282 279 279 277 277 277 278 280 281 282 283 283
313 314 312 310 301 298 296 295 296 293 290 292 294 295 295 288 276 270 272 277 287 286 289 285 286 283 283 284 284 283 283 281 285 284 286 284 286 283 283 284 282 279 277 278 280 279 281 280 281 280 283 280 280 280 280 279 279 281 279 280 277 278 275 275 267 269 270 267 268 273 274 273 274 275 280 278 277 276 280 282 281 281 281 282 281 282 282 282
310 310 310 302 299 294 298 297 296 293 294 294 293 290 288 285 281 279 274 286 281 282 283 283 282 281 282 282 280 281 283 283 282 281 280 279 278 280 280 278 277 273 273 269 278 279 280 280 280 281 284 281 279 281 280 278 277 279 277 275 275 269 271 272 265 275 267 274 277 274 273 274 274 278 281 280 279 278 277 280 282 280 282 282 281 282 282 281
309 309 309 303 298 293 293 293 291 295 295 294 290 287 281 275 275 272 276 277 280 281 284 284 283 282 282 280 282 280 282 284 283 281 280 280 279 280 281 281 279 280 275 275 276 274 280 278 280 281 281 283 281 280 276 279 277 278 278 274 271 266 261 266 259 262 267 274 276 274 273 275 276 279 280 281 281 280 280 279 279 280 281 282 282 281 280 281
308 306 298 298 298 297 297 294 293 295 293 293 295 290 284 277 276 285 275 274 280 280 282 281 281 281 280 283 282 282 280 281 283 282 280 279 275 278 280 279 280 280 273 274 277 272 273 276 280 280 279 280 278 279 280 280 278 279 277 277 277 268 272 269 266 275 273 274 275 273 273 273 277 283 282 279 281 280 279 278 278 278 278 279 279 279 280 280
305 299 296 291 292 293 294 290 294 296 289 291 285 281 278 274 270 278 275 276 278 281 284 281 281 280 280 277 282 280 282 281 280 279 279 280 278 274 278 280 281 279 278 278 275 274 280 275 279 281 281 280 279 280 279 278 277 277 277 276 275 277 273 274 266 266 266 267 271 272 275 275 282 283 282 279 278 278 277 277 278 279 279 278 280 282 282 283
302 293 292 290 294 294 291 292 291 294 291 288 280 278 278 276 281 278 280 283 282 284 282 281 278 278 277 278 280 280 285 283 283 278 277 276 278 279 280 278 279 281 282 279 277 274 275 278 279 279 280 279 280 279 280 280 278 280 278 275 278 277 274 267 267 265 267 267 268 268 277 279 280 283 282 279 278 280 278 277 278 280 279 278 281 283 283 283
292 292 296 291 294 293 291 291 292 291 291 285 281 280 275 276 280 277 285 285 284 285 282 281 279 280 276 276 278 277 283 283 281 279 278 278 278 279 280 281 279 279 281 279 279 275 278 276 279 279 280 281 279 279 279 279 280 279 275 279 278 275 273 275 275 264 262 269 273 271 275 277 277 280 281 284 282 285 281 280 279 279 279 281 284 284 284 285
292 293 294 292 295 292 292 291 293 289 288 283 281 290 277 281 282 283 279 282 285 282 277 276 280 283 277 277 278 278 283 282 280 276 274 278 278 280 279 280 281 281 280 280 280 280 278 277 278 279 279 281 279 281 280 281 280 281 279 280 282 274 279 272 269 271 270 267 267 273 271 273 275 280 280 284 281 284 284 282 281 282 282 282 284 284 284 284
286 289 292 293 293 292 291 291 291 286 284 282 273 285 280 279 282 281 283 284 283 282 284 278 277 280 279 279 279 279 279 281 279 275 278 278 279 283 284 281 282 279 279 280 279 278 277 275 277 279 279 279 279 279 275 280 280 275 278 279 278 277 273 272 274 270 273 268 270 272 271 278 278 276 281 282 280 281 281 281 284 284 283 283 283 284 284 284
292 289 285 293 293 292 291 294 289 283 283 282 273 277 280 281 283 282 281 284 285 285 282 281 277 277 279 278 279 281 278 279 279 279 281 279 281 283 282 282 280 281 280 279 280 280 277 278 274 280 277 278 277 275 278 275 277 279 278 274 275 272 277 276 270 274 276 264 266 265 272 275 280 279 280 282 282 282 281 283 283 284 284 284 283 283 284 284
285 283 283 290 296 293 292 291 284 274 275 274 274 275 278 282 283 282 281 279 282 282 284 280 279 279 278 278 281 278 278 276 277 279 278 280 280 280 281 281 281 282 281 281 280 278 275 278 278 274 275 277 276 278 277 275 276 277 277 277 277 274 274 275 274 271 264 272 268 264 274 276 282 281 281 282 283 281 280 280 282 283 284 284 285 284 283 284
290 283 285 291 293 293 291 284 276 274 274 277 279 278 283 290 282 283 282 280 281 283 282 281 280 277 275 277 278 277 276 278 278 278 278 280 280 280 280 273 278 279 281 279 279 280 280 272 272 274 275 278 277 278 276 274 273 274 277 280 275 274 273 268 272 272 269 270 269 269 270 277 283 280 280 280 280 280 281 279 281 283 284 284 285 285 284 283
280 281 291 292 292 292 286 276 281 277 276 279 282 283 280 282 281 282 282 282 283 282 280 282 283 282 280 282 276 274 275 278 279 282 278 278 279 279 276 272 276 280 279 278 282 279 285 274 274 273 269 273 276 272 270 274 275 273 272 269 275 279 279 274 275 275 271 269 270 267 268 278 282 279 279 279 279 280 281 279 281 283 284 284 285 286 286 286
281 286 294 294 291 292 287 282 279 276 275 278 280 280 281 282 282 282 282 280 280 283 283 280 283 283 282 278 278 281 279 281 279 279 279 276 279 276 274 275 277 279 281 281 281 280 279 276 276 271 274 272 276 274 276 274 272 272 275 275 275 275 271 267 268 267 273 271 271 273 269 271 283 280 280 280 280 282 284 283 280 283 286 286 286 287 287 286
286 286 287 288 292 293 288 280 279 275 276 278 278 280 281 281 281 282 282 282 282 280 283 283 283 281 280 278 276 277 274 280 277 277 278 276 279 278 277 275 278 279 281 282 288 282 277 277 276 276 272 273 274 270 274 275 276 276 275 275 275 276 273 274 278 269 273 271 271 269 271 279 282 283 284 283 283 286 288 287 285 282 284 286 287 287 287 287
284 284 281 284 287 285 283 281 283 280 278 275 278 279 279 280 284 281 281 281 282 281 281 283 280 279 279 280 279 276 278 278 280 276 276 276 277 278 277 275 275 279 283 287 284 277 272 272 273 272 270 271 272 275 276 279 276 278 276 273 276 275 275 274 272 271 272 268 273 275 276 281 284 286 284 286 285 285 287 288 287 288 287 287 286 286 286 286
285 280 278 284 284 283 280 280 280 284 284 282 282 279 279 280 281 282 282 282 282 281 282 283 281 284 281 280 277 278 278 279 277 278 275 274 276 276 274 276 275 281 286 285 282 273 271 277 274 273 274 278 278 275 275 280 277 276 277 277 275 275 275 277 277 274 275 276 273 276 276 278 283 284 285 286 287 285 286 286 287 287 287 286 286 285 287 286
286 282 279 281 287 282 283 284 282 278 281 283 279 280 279 280 280 280 282 282 281 279 283 283 282 282 283 283 281 281 279 277 277 277 277 276 276 277 276 277 278 282 281 276 278 278 274 276 275 275 275 274 274 275 275 276 278 276 275 276 276 275 275 277 277 276 278 275 280 278 277 277 282 285 286 286 287 285 286 286 286 284 284 284 284 284 285 286
284 280 281 282 286 278 280 282 282 283 282 277 280 281 280 282 281 279 282 281 281 282 283 281 282 282 280 281 282 279 279 279 278 277 275 275 274 274 275 277 277 276 274 275 275 270 276 273 273 275 274 272 273 273 272 276 274 276 275 275 277 276 277 279 278 275 279 281 281 279 276 279 282 284 286 288 287 284 285 284 283 284 285 284 283 284 285 286
283 287 283 280 280 275 278 280 282 285 284 284 283 281 282 282 283 281 281 281 281 282 283 283 283 280 280 278 279 281 282 284 283 280 280 276 276 276 277 279 277 276 275 274 274 275 278 274 279 271 274 272 272 272 270 273 273 274 276 275 275 275 276 277 276 276 276 277 279 279 279 280 286 285 287 287 283 281 282 283 285 285 284 284 284 285 286 286
287 282 286 287 282 280 280 282 283 284 282 282 281 281 282 282 282 281 281 282 282 282 281 284 282 280 279 279 282 283 283 282 282 286 282 283 281 281 283 280 280 276 275 273 273 272 276 274 270 269 275 274 272 267 270 266 271 270 272 274 274 274 272 274 276 278 277 279 274 277 276 279 284 280 280 281 281 282 283 285 285 285 285 285 284 285 286 287
283 284 282 283 280 284 282 277 278 282 282 282 282 282 284 284 281 282 282 281 277 280 281 281 282 283 281 282 283 283 283 281 281 280 281 278 280 278 279 279 279 279 277 274 271 276 269 272 273 270 274 270 272 267 267 266 271 275 277 275 278 277 275 275 278 277 280 278 276 275 280 282 280 280 282 284 282 284 284 285 287 287 286 284 284 285 286 286
Wind_Speed
4 4 5 6 6 6 6 6 7 6 6 6 6 6 8 9 9 9 9 8 6 5 3 3 3 1 1 2 4 6 6 11 14 16 20 3 9 15 15 14 13 8 2 3 6 6 7 8 10 6 9 9 6 7 3 8 4 6 7 5 9 1 5 3 2 5 1 4 1 1 1 5 1 1 0 1 6 3 2 4 4 1 0 1 1 0 1 1
4 5 5 6 6 6 7 7 7 6 6 6 6 6 6 8 8 7 8 8 8 7 4 3 0 2 3 3 5 5 5 10 15 19 9 10 20 20 18 15 11 2 3 8 7 5 10 5 5 14 9 7 5 4 2 3 5 8 5 6 7 2 0 2 1 4 2 3 3 1 0 1 1 2 1 2 1 3 2 2 3 2 2 2 1 2 3 2
5 5 5 5 5 6 7 7 7 6 6 5 6 6 7 7 6 7 6 7 6 4 3 1 3 3 3 2 2 7 4 12 20 14 11 19 22 20 17 14 11 9 3 4 1 6 5 2 2 14 8 7 11 5 5 4 4 4 7 9 3 3 1 0 1 3 0 6 4 3 1 3 0 0 0 1 1 1 1 2 1 0 1 2 2 1 1 1
6 5 5 5 5 5 6 6 6 6 5 6 6 6 6 6 6 6 6 5 7 7 5 4 3 1 2 1 3 3 3 13 10 5 6 17 21 19 17 14 11 8 6 11 5 8 5 5 11 13 4 13 4 4 10 7 4 3 8 3 4 4 4 3 1 1 3 4 4 2 0 3 0 0 0 3 2 2 3 6 3 4 6 6 5 3 1 1
5 5 5 5 5 5 6 6 6 5 6 6 6 6 6 6 6 6 5 5 10 11 11 9 7 7 6 5 3 3 3 12 3 5 8 21 21 18 16 13 11 9 6 7 6 6 7 9 5 9 8 3 6 5 5 6 4 5 4 1 4 1 7 1 0 1 4 2 6 2 3 1 0 1 2 4 1 1 1 1 8 4 6 6 6 5 1 2
5 5 5 5 5 5 5 5 6 6 7 6 6 6 7 6 6 5 4 2 2 5 7 9 12 11 10 6 6 5 4 4 3 8 14 21 20 17 14 13 10 3 2 9 4 5 7 9 10 6 5 7 8 9 4 1 1 10 3 3 2 1 6 1 0 1 2 2 3 1 1 1 1 0 0 1 4 2 4 2 4 6 7 6 2 3 2 3
5 4 5 5 5 5 5 6 6 7 7 6 6 7 7 7 6 5 3 3 4 3 6 5 3 3 2 8 15 20 13 2 2 10 16 19 18 15 12 9 9 7 8 7 7 6 5 9 13 4 6 8 6 10 3 6 8 11 5 1 4 3 5 2 1 3 4 8 1 0 1 0 1 0 0 1 5 5 3 3 4 3 0 2 5 4 6 6
5 5 5 6 6 6 6 6 6 6 6 7 7 8 8 8 7 4 4 4 4 4 6 6 6 6 3 4 9 7 9 4 11 8 16 18 15 13 10 3 9 5 13 7 0 8 4 9 13 4 10 8 2 5 1 13 10 9 7 0 2 3 1 1 3 5 4 4 0 3 0 1 1 0 0 4 6 4 3 2 1 2 3 1 2 4 4 4
5 5 5 6 6 6 6 6 6 7 7 7 8 7 8 6 5 4 5 6 5 5 6 7 6 7 7 8 9 13 5 4 7 10 14 15 13 9 11 2 10 9 5 4 4 4 6 1 3 3 7 7 0 6 6 4 7 3 3 2 2 3 1 0 4 5 4 0 2 0 1 3 2 3 2 4 2 3 1 2 2 3 4 3 5 5 4 5
5 6 6 6 7 7 6 6 7 7 7 6 6 6 6 7 7 8 8 7 7 7 8 9 11 7 9 7 7 13 3 6 6 12 12 11 8 11 13 5 4 6 6 7 6 4 2 5 7 9 17 11 2 6 3 8 5 3 5 5 7 1 1 5 3 3 2 1 1 0 1 0 1 1 2 1 3 0 2 2 1 5 5 5 4 4 3 4
6 6 5 6 7 7 6 7 7 7 6 6 6 7 10 10 8 9 10 11 11 12 11 14 15 14 6 5 13 6 2 8 5 8 12 9 14 13 7 8 1 7 12 12 11 6 9 15 11 7 6 3 6 8 9 3 6 7 8 7 7 4 5 1 2 4 1 0 3 1 1 1 3 1 3 1 0 1 5 1 1 1 4 4 4 4 4 4
7 5 5 7 8 7 7 7 8 7 8 8 8 9 10 12 12 12 14 14 12 9 11 14 14 8 12 17 12 3 3 2 5 5 7 11 10 5 6 4 5 3 14 9 6 4 3 6 4 2 6 2 9 5 6 1 3 1 2 6 2 5 3 6 1 2 2 1 2 0 1 2 2 1 1 2 2 0 3 3 2 3 4 4 4 5 5 6
6 6 8 8 7 7 9 9 8 8 8 8 9 9 9 7 8 7 5 8 6 6 5 4 1 2 11 14 2 4 2 2 3 7 13 9 2 5 6 8 14 12 8 12 3 4 1 3 13 21 3 6 4 1 4 6 0 2 7 4 3 3 3 4 1 3 1 1 4 1 0 3 2 6 4 2 3 2 1 2 4 4 4 4 4 5 7 7
8 8 7 8 9 11 11 10 9 8 8 9 9 10 9 9 8 8 10 10 7 8 9 11 5 5 13 2 4 3 3 0 2 12 12 9 6 6 10 10 11 9 7 15 7 6 11 7 23 15 4 6 6 1 8 2 5 3 1 5 1 1 1 2 2 4 1 1 4 0 1 3 4 2 1 1 4 7 6 5 5 5 5 5 5 5 6 9
8 8 7 9 9 9 10 11 11 9 9 9 10 10 11 10 10 10 7 8 10 5 5 4 4 7 9 1 5 8 1 2 9 4 4 9 3 5 7 7 12 10 7 8 5 4 1 2 13 9 5 3 5 4 3 3 3 3 1 2 3 4 1 4 1 3 2 1 5 2 0 3 4 5 2 2 2 4 6 5 5 5 5 5 5 5 6 9
8 7 6 7 8 10 11 11 11 11 8 9 8 10 10 11 11 11 10 6 6 10 1 8 9 12 12 4 0 4 6 5 6 3 2 6 6 6 1 2 3 8 8 4 3 1 6 13 14 2 3 3 10 6 4 4 2 4 3 0 1 2 1 2 0 1 1 1 3 2 2 3 2 2 0 2 3 3 5 5 5 6 6 6 5 5 5 7
8 7 5 6 7 9 10 10 9 8 8 10 13 12 12 10 9 10 10 9 8 3 7 2 0 1 8 3 1 4 3 2 5 3 6 4 5 0 1 5 5 5 4 3 10 6 9 11 3 3 6 7 1 2 2 6 2 2 4 3 1 0 1 0 3 0 3 1 1 4 0 4 4 6 7 5 3 3 5 7 6 6 5 5 4 5 6 5
7 6 6 6 7 8 9 9 8 8 6 6 12 14 15 22 21 15 12 8 3 7 5 4 2 7 3 6 1 1 0 6 7 6 3 1 5 8 8 6 2 2 6 2 8 9 5 4 4 4 3 6 8 6 3 1 1 0 2 2 1 0 1 2 1 1 4 3 0 2 2 8 9 8 6 3 1 5 7 8 5 5 5 5 4 5 5 6
7 6 6 6 6 7 9 9 9 5 2 2 1 1 3 6 7 12 10 6 7 6 2 9 8 1 5 1 4 5 3 3 3 5 8 8 4 3 4 3 6 3 1 5 4 7 7 5 6 9 6 8 7 5 4 1 2 2 2 2 2 0 0 0 2 1 3 4 1 1 3 7 11 8 5 2 0 5 7 4 5 6 5 5 6 5 5 5
6 6 6 6 6 7 8 8 7 5 1 2 3 1 3 5 7 5 8 15 8 4 2 2 1 2 5 6 3 5 3 2 4 7 3 1 3 5 6 3 4 10 7 3 7 4 0 10 7 3 1 3 3 1 1 1 2 4 4 5 1 1 3 2 1 1 1 0 2 2 3 5 10 9 8 4 3 3 5 7 7 6 6 6 5 6 6 5
6 6 5 6 6 6 8 7 6 5 5 4 2 3 0 6 6 1 1 4 2 1 3 2 4 5 2 1 2 5 1 3 3 8 6 2 1 1 4 4 6 8 5 2 0 3 7 10 5 1 2 1 3 1 3 3 3 2 5 3 1 0 1 1 0 3 4 1 2 0 5 8 9 8 6 2 1 6 8 8 8 8 7 6 6 7 6 6
6 5 5 5 6 7 7 8 4 5 6 5 4 2 1 3 0 2 7 6 4 2 4 1 1 4 2 1 1 2 3 4 9 12 5 6 5 2 5 9 5 4 4 4 2 8 10 6 1 1 2 4 5 4 3 3 4 3 1 1 1 0 4 6 1 3 3 0 5 1 6 11 10 7 6 3 5 4 4 6 5 5 6 6 6 7 6 3
5 5 5 5 6 7 7 6 4 4 2 2 2 4 1 0 1 1 4 9 6 1 5 4 7 5 4 3 1 2 7 6 1 7 8 7 3 6 1 6 7 2 5 6 6 4 6 1 2 0 3 3 3 4 3 5 6 5 2 2 2 2 3 2 1 4 4 2 2 4 6 11 6 5 7 7 5 4 4 4 7 5 7 8 7 5 5 6
5 4 4 5 5 6 7 6 2 6 5 4 6 3 1 1 0 1 3 4 4 3 3 0 2 1 3 2 2 5 4 1 2 10 7 4 3 2 7 4 6 5 6 5 8 10 5 0 1 4 2 1 4 4 4 1 1 1 3 2 0 2 1 2 3 5 3 0 1 4 3 6 5 0 2 0 1 3 4 3 5 5 7 6 5 5 5 8
4 4 4 4 5 5 6 6 7 1 1 4 3 1 1 1 1 2 5 3 6 2 2 1 3 1 1 1 4 1 1 2 2 2 3 3 0 2 2 1 4 2 1 1 7 12 3 0 1 2 3 3 1 5 4 1 0 2 0 1 0 1 2 4 5 5 3 1 4 4 6 2 3 5 7 7 6 5 2 3 8 7 5 3 5 9 5 6
3 3 3 3 4 5 2 5 0 1 3 3 1 0 0 0 0 1 8 6 2 3 2 2 1 1 2 3 6 0 1 3 2 1 1 1 2 3 2 4 1 4 2 4 7 4 2 1 1 2 6 6 6 3 1 0 3 1 1 0 1 1 1 1 7 1 2 1 5 2 2 6 6 3 1 4 5 9 8 5 9 7 7 5 7 6 6 7
2 2 3 3 3 2 3 1 1 2 5 0 0 1 2 1 1 0 2 5 4 1 1 2 1 1 3 2 1 1 1 1 2 1 3 3 1 1 4 2 3 4 2 1 3 2 2 3 5 3 2 3 4 6 1 1 1 0 0 3 3 1 1 2 1 1 0 1 3 6 5 1 7 7 2 3 3 7 8 10 9 9 8 8 7 7 6 7
1 1 2 3 2 1 2 4 2 0 1 0 1 0 0 0 1 2 5 3 1 3 1 2 0 2 3 1 5 3 1 1 1 1 1 3 0 4 7 2 3 3 0 2 1 0 2 3 4 4 4 5 2 0 0 0 1 0 1 1 0 0 1 2 1 1 0 0 1 7 4 1 3 7 3 2 1 4 8 10 10 9 8 8 8 8 8 8
2 2 3 4 9 9 6 4 4 2 0 1 1 0 0 2 4 5 4 2 0 2 1 1 2 1 6 1 6 1 0 3 2 1 5 1 6 2 6 1 7 7 2 1 6 1 2 1 1 2 2 2 1 0 1 2 1 0 3 3 3 3 3 1 0 1 2 2 2 4 5 0 7 6 6 2 0 6 8 8 9 8 7 7 8 8 7 5
3 4 4 3 2 1 2 3 4 1 1 1 1 1 1 2 3 2 2 1 0 1 0 2 1 2 2 3 3 8 5 4 1 6 5 2 7 8 4 4 3 4 6 8 10 3 0 2 4 3 1 1 2 0 1 0 1 1 1 1 2 3 3 2 5 2 2 1 2 2 4 1 3 4 2 1 0 2 3 5 5 6 5 7 7 7 6 6
7 6 4 5 1 2 1 2 1 1 1 1 0 1 1 7 2 4 1 1 1 1 1 4 1 5 2 3 3 4 3 3 6 3 1 6 5 7 2 2 3 6 5 6 5 3 0 1 1 0 1 2 2 2 1 1 0 1 0 0 2 1 5 1 3 4 2 2 2 1 1 3 0 5 3 8 4 4 4 4 5 7 8 7 5 6 7 6
11 13 11 8 1 1 1 3 0 0 1 0 1 2 3 2 3 1 2 3 1 3 3 1 1 2 3 1 6 4 1 3 3 5 3 3 3 5 6 5 0 3 2 1 1 2 2 2 0 3 1 2 1 2 1 2 2 2 2 3 2 4 4 1 7 2 0 0 0 1 2 1 4 9 4 6 7 6 5 7 7 6 9 8 6 5 4 4
13 12 15 8 2 4 2 1 1 1 0 1 3 4 2 4 1 1 1 1 0 1 1 2 1 1 0 3 1 1 2 2 3 3 2 1 5 3 0 0 1 1 2 2 2 2 1 1 2 1 2 1 1 1 2 1 2 2 1 1 3 3 4 0 3 2 4 3 1 1 2 1 5 7 5 6 5 4 5 7 7 8 9 10 9 6 5 5
5 3 10 2 7 3 2 2 1 0 1 3 1 3 7 2 2 2 2 2 1 2 3 1 0 1 4 2 0 0 2 0 1 1 2 0 4 1 1 1 1 2 5 1 1 3 1 1 1 2 1 2 1 2 1 1 0 0 1 0 2 5 1 0 1 1 2 5 5 3 1 2 5 1 1 7 7 7 6 6 6 7 9 9 8 8 8 8
12 12 7 1 3 3 2 2 2 1 3 3 9 5 3 4 1 4 3 2 2 1 1 2 2 2 2 3 1 1 2 0 2 1 6 1 1 1 2 0 1 2 1 4 1 2 0 3 1 1 1 1 2 1 1 2 1 0 2 2 4 0 3 1 1 2 1 3 5 1 3 3 3 3 6 4 7 6 4 5 2 6 4 4 6 6 7 7
5 2 3 3 2 1 2 1 2 1 2 8 2 2 2 4 0 3 1 4 2 4 4 3 4 3 1 0 1 3 4 1 1 2 1 2 1 2 0 1 0 0 1 1 3 2 1 0 0 5 2 2 0 1 0 0 0 1 1 1 1 2 8 7 1 0 1 2 2 1 7 5 7 4 4 7 5 5 5 5 5 6 6 5 7 7 7 7
4 2 4 2 1 1 1 1 2 3 7 5 3 2 2 1 2 3 1 3 3 9 3 8 3 3 3 3 1 1 0 2 1 2 1 0 0 3 1 1 3 0 0 2 0 2 3 1 0 1 0 0 1 0 0 0 0 1 1 2 2 1 3 2 0 1 5 2 3 3 2 8 6 0 5 7 9 7 7 6 7 8 5 7 9 8 8 8
2 3 1 1 2 3 1 1 2 5 4 3 1 4 1 2 1 1 1 2 2 2 5 2 0 3 4 3 2 2 1 2 1 2 1 1 1 2 1 1 1 1 0 1 1 0 2 2 0 0 1 2 1 0 1 0 0 0 1 1 0 1 1 3 2 3 4 3 5 7 2 6 3 2 5 5 5 7 9 9 8 9 8 7 9 10 9 7
3 3 1 1 1 3 1 1 4 3 2 1 1 1 1 1 0 0 3 1 0 3 2 2 3 1 3 3 2 0 1 2 1 1 3 2 2 1 0 2 0 0 0 2 1 1 1 1 1 0 1 1 1 1 0 0 1 1 0 1 1 2 2 1 1 2 4 1 5 5 4 0 5 5 2 5 4 5 7 7 7 9 8 8 8 9 10 10
2 2 1 0 4 3 1 2 3 5 4 3 3 2 1 1 1 1 1 0 0 1 2 3 1 4 0 2 3 4 1 1 4 1 0 0 0 1 1 3 3 1 1 1 1 0 1 0 0 0 1 1 0 1 1 5 3 0 2 1 1 2 1 3 2 1 0 3 2 1 6 4 6 6 4 4 4 5 4 6 7 9 9 9 8 9 10 9
1 3 1 3 7 3 3 12 9 3 3 0 1 3 0 1 1 0 1 2 1 1 1 3 7 2 6 3 2 1 2 1 1 2 2 1 2 1 0 0 1 1 0 1 2 0 2 0 0 1 1 1 2 0 0 1 0 0 1 1 5 5 1 1 2 1 2 1 2 2 5 8 11 3 6 4 5 4 4 4 8 10 10 10 10 9 6 9
3 2 1 2 6 2 3 6 3 0 4 4 2 2 0 1 2 0 1 0 1 0 2 5 1 4 2 1 3 3 4 2 1 1 1 2 0 1 0 4 1 0 1 2 1 1 0 3 5 0 1 1 1 1 1 1 1 1 0 0 3 2 4 3 1 2 2 0 2 1 0 8 5 4 5 6 5 6 6 3 8 10 10 10 10 9 8 6
3 2 3 3 5 4 9 5 0 4 2 1 3 1 1 1 2 2 1 1 0 1 2 2 2 2 2 1 2 1 2 1 3 1 1 0 0 0 2 3 2 2 1 1 1 0 4 1 2 1 2 4 2 0 0 2 1 1 0 0 0 1 1 3 1 4 6 1 0 1 1 8 5 2 4 5 6 6 7 4 8 9 8 9 9 10 10 10
3 2 1 1 2 2 5 4 3 0 0 1 2 0 2 1 1 1 0 0 1 0 1 1 1 1 2 1 2 3 3 2 1 2 0 1 1 2 1 3 0 0 0 1 2 1 1 1 2 1 1 2 1 1 0 0 1 1 1 1 0 1 3 1 4 0 1 7 6 6 3 2 2 1 3 3 6 7 8 4 5 7 8 7 8 9 8 8
4 1 0 5 7 4 4 3 6 6 2 3 2 3 0 1 1 0 1 1 0 1 1 0 0 2 2 1 3 2 2 0 1 2 1 1 1 1 2 2 2 1 1 2 1 1 1 1 1 1 1 0 1 1 1 2 5 2 0 0 2 4 8 2 1 1 0 1 4 2 6 11 8 6 7 4 3 8 10 7 2 4 5 8 9 10 10 8
1 3 3 3 7 6 5 1 6 7 7 3 3 1 1 2 0 2 2 1 1 0 1 3 0 2 2 1 2 1 1 2 1 3 2 1 0 0 1 2 2 0 1 1 2 1 2 0 1 2 3 4 2 2 1 2 2 1 1 3 4 0 0 3 5 4 4 4 5 8 7 8 16 12 6 9 8 8 11 11 11 11 10 9 6 8 8 9
1 2 2 2 2 5 2 2 2 4 6 5 3 4 3 1 1 1 1 0 1 0 1 0 2 3 1 3 2 2 1 0 2 4 0 4 0 0 2 2 3 1 3 0 1 2 2 0 0 1 3 2 1 4 1 1 1 1 4 3 3 4 4 6 6 5 6 8 5 6 3 2 11 8 8 9 9 7 7 7 9 9 9 10 10 9 10 9
1 2 3 1 4 3 2 4 6 2 1 2 0 1 5 5 2 3 1 0 0 1 2 0 1 1 6 5 5 3 1 1 0 3 1 0 2 1 1 1 1 2 2 0 1 1 2 1 0 1 0 1 0 1 1 0 0 2 4 5 7 8 5 9 7 5 8 4 10 1 3 3 9 8 11 12 10 5 10 11 8 8 9 8 7 9 9 9
2 1 1 1 1 1 2 2 6 7 6 2 2 2 4 6 6 3 3 1 1 1 0 2 4 5 4 1 1 2 4 3 1 0 4 4 3 3 1 1 1 3 0 0 1 1 2 0 2 0 1 1 3 2 1 4 1 0 4 7 6 10 13 13 8 4 11 9 5 1 2 11 14 13 14 16 8 5 8 7 7 7 7 6 7 7 7 8
2 2 0 4 6 4 0 3 5 8 6 1 4 5 6 7 8 1 1 3 3 1 1 1 2 4 3 2 2 4 7 2 3 6 5 6 1 1 4 4 4 2 1 1 0 0 1 1 4 1 1 1 2 2 2 1 3 3 5 5 5 5 5 7 3 2 1 9 13 10 10 15 14 4 10 8 5 4 5 6 7 8 6 7 7 7 8 9
1 1 5 6 2 0 2 2 4 5 4 1 3 2 5 5 5 5 2 0 1 4 5 3 8 6 1 2 1 0 2 3 4 1 12 8 5 8 3 2 7 6 1 1 0 2 1 1 1 1 1 2 1 2 3 2 1 4 5 5 6 7 6 5 7 7 6 9 2 1 2 9 11 3 4 5 4 5 7 10 8 5 6 7 7 8 9 10
3 0 2 5 2 1 2 1 0 4 4 6 4 5 5 12 4 7 3 1 1 1 2 5 8 8 1 3 1 2 3 3 2 1 8 4 7 8 5 4 4 10 8 3 0 2 1 5 2 1 0 2 2 0 6 3 1 5 7 12 17 8 2 1 3 2 8 5 3 3 10 6 4 1 5 7 5 7 7 7 11 10 7 5 7 9 11 11
Wind_Direction
47 42 26 19 15 13 16 26 30 34 42 37 42 46 46 42 43 51 63 65 70 72 68 63 61 62 350 300 327 350 17 80 56 44 47 41 334 322 325 324 313 303 357 75 28 54 23 23 22 323 48 48 322 44 322 46 360 55 53 106 62 149 75 193 158 183 140 116 223 84 315 103 99 7 217 7 18 41 355 46 316 326 343 218 249 314 252 283
54 41 33 24 13 5 12 24 35 39 39 41 53 50 42 40 41 49 56 53 44 39 41 29 207 226 255 281 357 342 32 64 53 45 63 344 349 346 341 335 341 357 72 51 79 86 79 30 29 53 34 48 332 47 18 11 37 67 94 55 121 195 126 146 198 186 113 164 161 192 200 113 164 131 260 84 323 3 27 352 15 358 325 6 40 358 35 49
44 33 36 36 24 14 15 26 40 43 36 42 53 41 32 38 38 49 47 44 35 35 45 287 235 252 289 355 321 12 48 42 41 18 333 350 348 344 343 338 7 34 65 128 104 107 113 149 289 78 360 89 11 40 31 351 60 17 108 81 42 215 123 207 164 183 241 137 109 117 288 99 251 126 293 155 195 360 170 194 320 329 238 245 268 325 351 63
38 39 34 40 35 28 25 32 41 46 31 35 40 35 31 40 47 52 52 46 57 68 69 56 59 99 89 139 32 6 56 66 44 304 307 342 345 339 342 349 12 21 62 58 84 89 93 89 56 74 85 63 321 29 45 337 76 332 66 112 156 191 103 342 21 158 100 110 136 106 282 86 318 225 94 177 89 307 266 223 168 202 215 223 238 260 316 259
40 35 31 30 39 37 30 32 42 41 35 34 31 30 30 37 47 50 52 59 74 77 70 62 62 71 70 56 42 62 57 62 301 328 312 342 338 339 338 349 15 35 61 120 82 65 69 56 64 49 64 64 14 22 33 341 70 87 91 70 119 156 75 293 332 297 111 99 95 89 88 190 276 53 83 140 151 223 219 253 210 199 192 190 212 233 261 241
40 42 44 31 31 34 37 37 38 38 37 34 27 28 32 26 37 42 44 50 17 44 62 64 67 76 79 70 56 65 74 102 311 321 332 337 335 334 336 357 4 44 46 49 69 20 47 6 58 30 37 59 359 75 306 325 299 92 348 37 26 204 121 260 301 320 112 82 88 70 189 84 48 127 217 168 187 236 220 225 209 207 195 193 147 143 199 228
38 48 52 51 54 47 42 42 43 40 39 34 30 28 25 16 22 29 32 41 47 51 48 47 40 355 25 42 61 66 82 130 335 294 341 333 332 337 334 7 19 47 57 55 31 61 63 82 74 66 95 87 39 79 41 58 29 90 111 61 29 54 88 277 94 50 83 97 90 181 52 81 29 5 128 213 249 230 270 259 238 233 241 132 155 191 198 206
30 30 46 56 58 51 43 44 47 47 43 36 26 23 18 7 9 30 43 68 79 66 59 54 38 23 67 38 54 40 49 336 314 318 335 340 339 339 335 5 24 53 56 65 103 105 102 56 104 170 47 95 207 106 288 69 28 78 94 259 177 51 16 59 102 56 62 50 322 73 85 309 203 280 83 258 251 261 277 20 98 127 120 109 205 219 230 239
26 29 44 52 55 48 43 44 46 44 41 33 25 19 9 5 27 61 86 84 87 75 70 59 61 55 95 86 100 66 5 294 302 322 345 344 334 348 35 9 3 80 120 47 13 140 89 241 85 178 164 106 30 91 341 95 25 51 116 123 71 85 51 304 65 42 34 144 28 13 331 305 249 233 238 237 248 224 43 73 67 112 130 192 222 233 224 234
24 30 43 52 55 50 47 50 46 47 44 34 30 23 26 40 72 89 90 87 82 75 75 76 63 80 51 84 55 70 291 291 341 348 338 342 336 31 31 23 26 58 55 343 40 39 92 195 125 112 113 77 92 34 278 67 144 127 88 87 95 325 82 9 104 357 336 92 311 110 288 276 305 64 297 295 248 357 102 93 26 132 183 221 232 252 252 246
33 34 44 53 55 51 50 54 52 48 46 41 41 48 49 60 77 87 88 86 78 76 81 80 80 61 48 55 86 82 269 7 0 343 342 329 38 33 353 333 322 86 89 50 49 51 106 119 133 148 37 143 102 28 57 127 125 96 127 88 41 15 72 2 60 8 2 344 37 75 268 278 308 72 225 239 188 297 144 200 180 170 220 247 264 275 278 262
36 40 42 51 50 47 47 51 49 46 46 44 47 58 61 69 75 85 89 85 79 72 71 78 77 106 80 68 60 86 297 296 329 335 353 4 52 27 359 358 75 134 109 97 58 20 90 147 85 70 148 195 76 130 62 111 67 137 74 73 342 9 42 4 51 330 22 317 14 300 17 344 337 196 265 243 303 95 151 189 243 255 263 275 286 293 285 261
39 43 45 48 48 57 58 54 50 50 54 55 57 60 62 63 67 60 43 48 32 39 25 61 26 57 86 50 330 251 323 343 343 349 10 13 78 74 62 50 64 62 85 102 55 311 218 158 105 79 57 84 136 46 161 82 3 104 35 108 35 5 25 349 294 347 13 280 7 318 278 274 273 248 266 302 136 104 120 243 257 266 277 282 285 282 284 281
44 46 54 72 81 72 60 51 50 55 62 68 68 66 67 65 68 66 68 81 60 42 45 43 51 79 75 138 279 247 279 70 302 21 359 341 52 37 42 43 57 64 49 91 93 49 74 78 86 108 104 97 120 276 70 350 23 92 246 55 87 51 9 344 41 319 101 340 27 48 123 294 274 286 322 328 171 155 192 226 245 261 273 275 278 280 277 280
44 49 64 85 72 55 47 48 50 56 69 73 74 77 76 75 70 56 45 50 3 359 12 88 54 70 61 13 283 296 5 91 35 355 322 17 0 38 16 28 53 54 67 70 92 43 26 95 69 46 72 330 67 63 22 40 15 35 74 326 330 97 270 305 48 26 58 335 14 80 40 229 257 262 291 306 161 165 201 226 242 258 267 271 277 281 283 276
45 45 54 62 53 46 43 44 50 58 68 83 87 85 80 75 71 68 51 46 359 351 355 56 4 93 103 52 130 12 39 41 349 323 292 39 18 98 271 34 78 42 38 34 47 58 25 67 62 111 109 13 54 79 73 38 351 359 92 72 328 34 247 353 36 54 344 244 350 74 242 321 322 260 289 352 163 188 214 250 258 261 266 275 276 282 283 300
41 34 25 33 38 40 38 39 43 52 71 97 94 86 86 81 74 67 59 50 5 332 75 121 181 100 72 247 323 34 313 293 273 4 342 46 54 215 26 30 21 348 353 32 28 49 5 58 277 42 37 92 138 95 58 22 350 344 32 110 210 103 348 77 311 168 9 87 259 7 163 236 244 284 298 311 183 174 216 244 254 256 265 271 282 282 279 279
35 22 13 10 27 37 33 34 35 46 73 94 95 93 79 74 60 37 0 5 351 71 80 97 112 57 36 13 87 317 64 291 359 306 304 3 61 32 61 42 335 29 39 15 1 43 338 57 17 138 39 23 29 29 85 262 192 188 42 46 8 345 212 268 66 297 13 12 214 336 233 275 280 295 293 279 230 176 222 227 245 263 272 280 281 280 280 275
25 12 3 5 14 31 32 25 27 22 354 237 24 74 22 21 61 63 31 344 32 357 25 339 18 90 181 166 297 302 304 230 278 29 338 6 340 83 56 85 58 55 4 57 333 50 345 60 38 37 17 353 7 62 126 135 120 141 166 149 134 117 236 220 238 296 40 336 7 348 278 301 302 302 295 324 76 190 235 283 281 269 271 275 275 277 271 267
13 6 354 1 11 23 26 29 11 14 350 34 11 27 18 25 15 356 347 44 67 95 132 278 232 90 55 15 1 280 248 6 86 348 343 331 357 351 39 58 17 59 60 56 314 33 350 76 60 101 271 278 277 203 123 140 130 107 92 93 118 216 290 284 305 292 348 314 258 259 284 271 276 262 266 285 305 228 261 259 255 261 264 265 265 263 268 261
6 354 353 355 7 11 21 28 20 28 89 100 84 63 182 156 81 30 341 87 196 141 76 55 89 89 108 271 312 4 106 5 93 12 5 251 75 51 337 19 19 47 16 280 118 302 69 71 8 251 250 277 288 196 121 72 42 110 108 85 66 122 302 194 129 346 321 47 286 45 313 289 260 274 264 302 119 238 222 236 253 255 249 254 253 269 261 251
346 350 345 352 359 3 12 26 41 66 76 85 72 116 129 197 205 187 126 70 22 60 61 18 243 42 317 184 306 131 65 59 16 352 322 32 331 90 325 80 66 89 338 351 8 28 43 81 218 280 136 95 53 80 112 127 102 28 89 172 66 277 252 280 256 338 324 79 264 356 349 285 279 272 280 228 200 244 229 207 225 216 256 255 255 251 263 290
341 334 350 349 355 358 1 20 60 57 37 48 63 98 82 232 346 249 97 125 75 325 44 18 27 17 359 292 243 78 63 42 344 343 344 7 11 54 38 58 42 29 8 17 120 102 59 340 295 344 140 99 32 41 71 65 64 57 2 29 296 279 19 308 304 1 340 51 314 316 309 285 306 278 261 252 211 259 252 233 248 222 239 245 241 233 238 232
323 339 347 356 350 347 352 359 64 45 24 113 99 103 162 29 346 103 56 92 126 346 46 306 122 120 23 24 318 61 94 328 74 330 348 53 71 189 71 111 76 51 10 13 96 98 134 198 151 72 97 134 98 31 51 54 10 12 91 112 45 343 331 191 281 326 299 329 10 303 292 314 342 17 240 4 315 301 297 320 277 257 235 258 292 287 227 225
307 338 3 349 350 350 336 28 36 9 215 48 44 252 277 325 87 122 90 33 23 38 164 65 109 48 294 276 1 84 327 100 75 234 300 56 45 35 84 153 94 40 192 321 82 77 32 258 105 48 51 63 73 26 28 97 70 341 236 117 155 145 306 316 315 5 19 328 29 33 8 320 299 289 247 287 340 318 303 324 272 268 273 270 253 248 247 242
307 348 356 340 340 342 308 52 329 137 67 86 182 269 324 317 54 101 93 77 61 271 352 349 170 5 180 339 6 146 86 46 270 275 52 356 210 121 115 27 60 155 219 90 92 115 137 1 124 155 99 75 74 102 300 111 145 72 292 181 160 152 105 3 342 44 11 54 340 24 86 271 329 321 302 315 329 293 302 287 273 280 272 261 246 244 236 229
342 347 349 327 318 320 59 208 180 125 78 266 233 311 295 297 276 265 54 6 55 253 94 242 76 274 86 292 330 43 68 267 331 11 35 356 88 356 94 318 36 32 110 168 43 352 18 349 34 37 58 67 54 41 347 118 85 18 333 117 105 77 19 335 39 46 189 326 271 39 69 232 316 296 280 293 314 293 301 285 271 263 259 254 249 243 236 231
354 30 5 15 21 167 213 129 104 86 174 274 9 356 345 235 25 43 77 79 234 5 73 326 77 346 78 322 44 99 168 309 48 315 84 302 110 10 84 163 123 138 293 74 101 269 79 337 28 10 63 62 73 181 331 129 108 254 216 177 118 107 160 97 62 93 96 330 286 344 345 74 265 264 309 343 329 311 284 271 269 259 251 248 248 246 237 231
96 81 47 72 80 78 79 113 121 130 269 284 308 336 132 73 86 105 116 115 251 80 192 77 309 46 338 332 33 17 3 14 117 295 322 298 38 165 76 196 135 123 87 160 153 198 326 125 257 120 98 95 215 314 187 152 50 277 135 104 85 70 74 54 96 35 337 54 300 327 355 45 288 277 344 327 270 282 264 269 271 263 255 251 247 250 245 242
101 67 49 332 29 58 16 52 46 234 300 353 315 178 40 63 32 40 10 329 105 180 33 252 65 272 27 66 348 2 54 342 90 308 27 89 340 33 53 140 116 72 49 30 69 170 176 350 186 69 79 157 147 353 138 109 104 118 128 49 5 37 17 22 64 89 53 33 266 266 316 82 301 281 253 84 243 208 279 307 287 290 278 261 248 244 246 236
72 54 31 40 111 191 74 29 312 313 293 360 280 50 66 39 110 106 126 228 57 287 337 28 275 16 50 90 80 343 76 351 347 13 14 6 3 35 54 72 47 53 60 30 52 334 20 6 41 347 35 74 111 77 32 82 31 108 75 49 31 329 358 29 340 30 77 297 258 263 305 315 318 299 324 241 280 236 215 255 284 304 309 293 264 248 239 240
81 66 60 67 148 34 111 201 166 320 22 10 63 62 71 242 5 106 218 335 156 269 117 236 18 105 55 357 77 349 34 353 6 39 58 23 46 33 353 137 99 73 354 4 51 1 28 28 221 347 211 95 90 92 344 12 12 70 57 31 61 283 31 313 14 7 355 185 181 342 340 19 229 226 254 293 273 280 230 231 251 280 298 300 292 277 274 255
92 91 71 52 81 51 42 118 67 171 56 52 72 52 64 92 218 265 86 340 204 74 228 70 177 53 181 63 18 315 267 87 327 62 140 24 96 19 219 133 192 144 166 231 65 33 284 163 32 276 68 356 133 93 332 54 354 67 75 99 64 32 36 353 274 223 299 301 286 6 286 250 255 288 238 244 257 229 250 241 243 252 261 278 284 292 289 263
55 74 68 358 75 79 122 96 68 127 57 37 76 51 51 90 239 153 140 231 197 341 37 85 78 61 34 122 225 314 55 270 45 318 49 69 53 99 324 331 98 24 78 142 131 180 84 334 304 23 22 19 48 86 157 174 104 136 165 90 171 139 145 13 244 338 257 248 277 288 26 238 20 238 214 229 260 289 267 262 258 253 256 263 277 278 273 274
83 71 98 34 51 46 76 108 83 126 78 64 49 90 136 236 208 181 222 223 268 344 111 320 74 72 6 21 321 287 171 64 47 47 18 59 241 161 167 287 318 129 183 108 257 73 197 202 287 289 255 340 82 270 114 96 62 217 168 101 60 60 148 88 210 163 257 337 343 332 216 188 200 277 286 289 296 285 296 280 288 280 266 278 288 268 260 258
57 360 65 29 43 332 89 92 102 90 92 51 74 53 189 186 314 159 184 151 105 146 160 55 80 60 322 323 339 80 299 122 341 83 351 64 182 130 243 207 181 301 155 154 179 134 4 339 314 321 47 67 225 194 359 220 136 213 103 40 162 132 95 102 71 87 93 59 252 230 312 296 292 318 291 338 2 330 344 322 333 304 303 320 286 273 267 261
59 346 45 339 22 27 65 128 112 87 61 91 91 251 208 273 212 165 262 133 192 140 104 123 245 121 193 203 241 336 280 62 333 108 221 171 325 190 198 276 170 64 64 137 357 188 147 217 6 92 314 310 282 150 83 225 229 77 52 196 115 130 130 125 255 345 60 96 265 38 303 306 19 248 323 357 15 327 340 329 305 295 292 295 275 272 267 264
84 67 117 35 299 345 104 187 105 50 79 79 174 232 191 97 232 160 198 103 93 41 101 95 286 68 236 126 249 189 304 124 282 55 170 216 131 151 106 138 17 73 181 296 131 247 100 70 313 321 218 254 14 337 338 251 356 155 154 155 56 273 47 332 90 11 351 353 303 315 276 243 198 275 347 335 334 315 322 324 334 327 322 291 290 291 288 286
68 88 63 280 329 26 312 85 77 73 60 58 232 45 226 263 277 154 217 225 286 127 119 223 135 297 135 163 186 20 197 180 208 157 115 239 120 160 190 150 137 136 325 221 65 223 13 142 280 344 111 328 2 67 285 283 21 73 331 15 3 94 128 54 123 174 120 261 32 296 28 256 210 223 215 261 271 278 297 324 317 308 299 297 297 297 297 302
73 66 319 275 321 11 327 83 60 48 74 186 217 212 172 199 216 260 8 150 264 120 218 133 208 116 113 201 146 157 315 126 147 213 110 294 90 307 239 2 151 180 141 327 132 302 83 359 170 295 280 330 236 327 215 159 162 325 42 344 8 43 217 110 35 80 217 169 168 221 334 282 266 213 174 241 254 262 249 282 294 296 302 301 288 286 295 294
15 97 262 298 338 324 52 44 50 46 113 308 88 163 45 196 177 359 16 19 108 302 191 158 158 140 189 113 264 167 102 109 126 136 180 291 149 259 30 132 260 112 77 63 57 359 74 10 164 300 31 222 215 114 207 142 74 168 147 191 176 105 99 129 267 26 70 77 218 116 267 272 272 176 204 220 247 257 256 236 282 291 295 298 300 298 288 294
116 206 268 313 342 41 76 55 13 149 101 132 174 170 111 132 73 351 25 346 71 156 22 107 48 119 127 108 167 154 122 105 177 88 273 160 269 96 278 52 108 91 115 162 164 249 136 139 96 102 189 219 253 35 63 107 95 135 164 83 136 113 105 92 98 259 43 8 108 151 106 275 241 207 213 231 260 259 269 243 272 286 292 294 296 292 292 267
57 182 250 344 347 80 68 64 253 46 61 234 314 18 344 24 112 244 121 333 331 105 18 57 191 103 241 143 181 107 156 108 167 208 175 237 204 191 253 127 237 51 91 347 20 352 114 68 56 308 315 313 334 337 33 42 139 40 21 33 109 193 189 172 169 176 137 164 45 7 224 252 282 233 240 252 267 277 280 241 261 283 290 294 296 305 310 316
130 148 45 303 41 92 95 181 197 237 241 309 76 155 297 167 121 109 81 329 135 311 152 172 7 354 146 90 113 148 214 109 254 104 181 168 76 150 79 22 241 23 91 199 127 234 84 308 120 46 358 339 345 2 4 280 70 160 207 218 228 70 64 157 101 48 99 216 167 120 238 290 273 319 284 274 295 302 298 274 213 275 296 294 304 308 310 311
111 344 331 305 360 59 194 186 130 143 206 146 136 114 62 25 31 181 155 168 232 178 110 23 207 151 59 106 89 96 21 146 146 323 95 95 137 16 318 75 310 127 319 246 215 333 88 214 104 139 146 16 257 317 263 251 225 204 91 86 249 134 137 113 189 29 195 275 129 166 253 252 271 298 312 308 326 329 326 330 280 212 252 299 316 316 318 320
146 138 305 344 9 42 63 56 106 134 136 155 97 219 110 104 15 318 122 60 194 90 33 133 359 88 98 87 64 43 51 353 98 183 129 151 254 333 271 360 87 195 292 253 45 82 141 62 89 150 147 184 198 213 256 97 63 210 235 168 201 137 105 95 102 98 209 185 189 237 198 299 310 305 332 321 334 326 320 325 329 328 325 320 310 313 318 316
166 113 164 203 359 40 80 32 103 109 176 171 134 175 175 160 182 20 195 64 207 146 59 26 186 133 239 93 154 93 263 28 10 85 91 139 260 251 320 121 351 267 290 105 35 85 72 68 255 135 199 197 179 170 287 291 193 220 141 221 193 162 179 138 159 215 165 98 295 251 198 181 264 290 302 309 309 311 297 297 312 317 317 316 310 309 312 321
136 245 106 198 132 224 124 267 150 87 57 96 119 65 157 138 167 147 358 33 109 299 127 348 99 313 176 170 140 111 157 70 79 152 128 265 96 356 66 332 109 321 11 30 329 142 147 150 232 111 276 114 359 268 313 51 219 189 195 156 183 191 166 183 225 197 155 176 222 244 147 200 262 274 284 288 281 285 291 296 300 293 289 298 317 325 324 321
100 154 151 359 237 272 138 217 138 140 110 99 107 102 167 166 182 208 156 120 23 280 212 156 237 218 184 202 123 136 180 112 275 327 171 168 171 129 87 345 259 1 90 40 5 170 97 91 188 125 261 4 348 345 323 194 233 253 214 204 197 170 201 206 222 192 190 230 268 282 255 260 263 267 277 274 292 287 290 304 302 309 309 315 322 320 321 322
224 147 256 10 85 122 327 85 125 129 143 171 121 229 163 175 166 193 330 130 154 262 134 188 227 135 144 124 109 132 210 144 165 170 206 128 101 175 203 189 151 355 47 160 12 321 104 251 114 204 13 318 327 331 38 104 156 242 251 223 202 207 225 233 280 266 17 297 277 278 281 284 279 230 250 281 320 323 312 309 305 297 308 326 326 319 322 322
108 121 150 121 82 321 65 65 125 151 119 259 136 209 134 190 183 169 146 243 156 175 178 207 158 117 79 81 54 222 259 196 172 211 171 149 169 207 147 227 133 144 132 99 33 316 27 194 63 78 21 316 301 23 309 29 273 226 279 252 194 165 208 208 197 209 163 217 87 75 281 259 267 342 297 278 314 342 325 310 305 304 324 331 330 321 318 317
79 33 83 102 89 275 139 29 324 89 221 217 151 194 174 203 169 149 92 210 128 297 189 148 168 111 65 81 2 268 279 189 200 151 121 86 99 79 66 108 126 151 164 140 249 126 149 129 116 97 74 261 249 112 305 11 93 334 273 223 196 205 216 329 293 248 221 140 148 213 232 217 230 40 354 311 347 331 324 307 306 323 324 320 311 313 314 314